[[{"header":{"parameterUnit":"m.s-1","parameterCategory":2,"la1":30.2992,"la2":30.254,"lo1":-89.0895,"lo2":-89.0443,"dy":0.0025,"dx":0.0025,"nx":19,"ny":19,"refTime":"2026-04-09T09:00:00:Z","depth":"0","parameterNumber":2,"parameterNumberName":"U-component_of_CURRENTS"},"data":[0,0,0,0.264,0.2641,0.2656,0.2656,0.2564,0.2564,0,0,0,0,0,0,0,0,0,0,0,0.2621,0.2621,0.264,0.2642,0.2656,0.2656,0.2565,0.2564,0,0,0,0,0,0,0,0,0,0,0,0.2621,0.2621,0.2621,0.2642,0.2656,0.2656,0.2565,0.2576,0,0,0,0,0,0,0,0,0,0,0.2574,0.258,0.2621,0.2621,0.2642,0.2656,0.2656,0.2578,0.2575,0.2533,0,0.2542,0,0.2564,0.2557,0.2556,0,0,0,0.2621,0.2582,0.2591,0.2621,0.2642,0.2656,0.2644,0.2577,0.2574,0.2529,0.2541,0.2539,0.2562,0.2556,0.2556,0.2513,0.2513,0,0,0.262,0.2613,0.2593,0.259,0.2652,0.2643,0.2644,0.2577,0.257,0.2541,0.2538,0.2561,0.2556,0.2555,0.2513,0.2513,0,0,0,0.2632,0.2613,0.2625,0.2592,0.2611,0.2644,0.2645,0.2573,0.2579,0.2537,0.256,0.2555,0.2554,0.2512,0.2513,0.2551,0,0,0,0.263,0.2622,0.2625,0.2619,0.2614,0.2609,0.2643,0.2583,0.2578,0.256,0.2555,0.2553,0.2512,0.2513,0.2549,0.2559,0,0,0,0.2619,0.262,0.2626,0.2619,0.2638,0.2611,0.2613,0.2583,0.2591,0.2556,0.2552,0.2512,0.2513,0.2548,0.2557,0.2629,0,0,0,0.2606,0.2604,0.2625,0.2621,0.2638,0.2624,0.2614,0.2593,0.2564,0.2554,0.2512,0.2513,0.2547,0.2556,0.2627,0.2672,0.2687,0,0,0.2594,0.2602,0.2597,0.2617,0.259,0.262,0.261,0.2574,0.2562,0.2522,0.2522,0.255,0.2557,0.2629,0.2711,0.2725,0,0,0,0.2587,0.2569,0.2566,0.2559,0.2568,0.2585,0.2572,0.2586,0.2583,0.2554,0.2553,0.2556,0.2601,0.2623,0.2634,0.2704,0.2516,0.2516,0.2516,0.2524,0.253,0.2498,0.2501,0.2511,0.255,0.258,0.2599,0.2574,0.2599,0.259,0.2671,0.2694,0.2703,0.2774,0.2596,0.2596,0.2596,0.2596,0.2448,0.241,0.2439,0.2413,0.2461,0.2473,0.2566,0.26,0.2671,0.2633,0.2676,0.2664,0.2717,0.2789,0.2599,0.2599,0.2598,0.2598,0.2598,0.2362,0.2345,0.2345,0.233,0.2366,0.2444,0.2537,0.2623,0.2693,0.2741,0.2793,0.2792,0.2856,0.2776,0.2776,0.2776,0.2777,0.2777,0.2777,0.2265,0.2262,0.2235,0.2246,0.227,0.2361,0.2526,0.2627,0.2785,0.2839,0.284,0.2897,0.2726,0.272,0.2783,0.2782,0.2781,0.2781,0.278,0.2119,0.215,0.2114,0.2122,0.2184,0.2238,0.2441,0.2685,0.2823,0.2911,0.3053,0.2908,0.2907,0.2898,0.2896,0.3001,0.3001,0.3001,0.3001,0.2032,0.2039,0.2002,0.2009,0.2063,0.2175,0.2322,0.2585,0.2945,0.3111,0.3184,0.3153,0.3141,0.3152,0.3137,0.3138,0.3303,0.3303,0.3303,0.1932,0.1957,0.1904,0.1931,0.1986,0.2096,0.2188,0.2439,0.3011,0.3321,0.3279,0.3266,0.3221,0.3196,0.3207,0.318,0.3179,0,0]},{"header":{"parameterUnit":"m.s-1","parameterCategory":2,"la1":30.2992,"la2":30.254,"lo1":-89.0895,"lo2":-89.0443,"dy":0.0025,"dx":0.0025,"nx":19,"ny":19,"refTime":"2026-04-09T09:00:00:Z","depth":"0","parameterNumber":3,"parameterNumberName":"V-component_of_CURRENTS"},"data":[0,0,0,-0.0164,-0.0165,-0.0205,-0.0206,-0.0244,-0.0245,0,0,0,0,0,0,0,0,0,0,0,-0.0145,-0.0145,-0.0164,-0.0165,-0.0205,-0.0206,-0.0244,-0.0245,0,0,0,0,0,0,0,0,0,0,0,-0.0145,-0.0145,-0.0145,-0.0165,-0.0205,-0.0206,-0.0244,-0.0218,0,0,0,0,0,0,0,0,0,0,-0.0181,-0.016,-0.0145,-0.0145,-0.0166,-0.0205,-0.0206,-0.0217,-0.0219,-0.0221,0,-0.0222,0,-0.0235,-0.0247,-0.0247,0,0,0,-0.0169,-0.0158,-0.0172,-0.0145,-0.0166,-0.0205,-0.0188,-0.0218,-0.0221,-0.0225,-0.0223,-0.0224,-0.0236,-0.0247,-0.0247,-0.0218,-0.0218,0,0,-0.0166,-0.0151,-0.017,-0.0174,-0.0169,-0.0187,-0.0189,-0.022,-0.0218,-0.0223,-0.0226,-0.0236,-0.0247,-0.0247,-0.0219,-0.0218,0,0,0,-0.0158,-0.0149,-0.0163,-0.0172,-0.0181,-0.0188,-0.0191,-0.0217,-0.0222,-0.0226,-0.0237,-0.0247,-0.0248,-0.0219,-0.0219,-0.0115,0,0,0,-0.0157,-0.0144,-0.0162,-0.0153,-0.018,-0.02,-0.0186,-0.022,-0.0224,-0.0236,-0.0247,-0.0248,-0.022,-0.0219,-0.0119,-0.0052,0,0,0,-0.0145,-0.0143,-0.0146,-0.0152,-0.0169,-0.02,-0.0208,-0.0221,-0.023,-0.0247,-0.0248,-0.022,-0.0219,-0.0123,-0.0059,-0.0014,0,0,0,-0.013,-0.0083,-0.0146,-0.0093,-0.0169,-0.0139,-0.0208,-0.0196,-0.0201,-0.0247,-0.022,-0.0219,-0.0124,-0.0063,-0.0019,0.008,0.0108,0,0,-0.0051,-0.0073,-0.0038,-0.0095,-0.0038,-0.0134,-0.0083,-0.0129,-0.0186,-0.0211,-0.0211,-0.0118,-0.0059,-0.0015,0.0153,0.0179,0,0,0,0.0001,0.0024,0.0033,0.0041,0.0026,0.0012,-0.005,-0.0081,-0.0111,-0.0185,-0.0121,-0.0087,-0.0063,-0.0013,0.0008,-0.009,-0.0213,-0.0213,-0.0213,0.0129,0.0116,0.0175,0.0158,0.0163,0.0112,0.0102,0.0041,-0.0028,-0.003,-0.0006,0.0098,0.0153,0.0169,0.0067,-0.0022,-0.0022,-0.0022,-0.0021,0.0252,0.0284,0.0264,0.0311,0.0277,0.0291,0.0233,0.0179,0.0165,0.0086,0.0103,0.0091,0.0198,0.0081,-0.0015,-0.0016,-0.0017,-0.0018,-0.0018,0.0329,0.0342,0.0353,0.0397,0.0426,0.0387,0.0442,0.0369,0.0274,0.0298,0.0319,0.0318,0.0216,0.0295,0.0296,0.0297,0.0297,0.0297,0.0298,0.0388,0.0405,0.0452,0.0486,0.0523,0.0572,0.0559,0.0563,0.0526,0.046,0.0459,0.0254,0.0194,0.0184,0.0306,0.0304,0.0303,0.0302,0.0302,0.0473,0.0462,0.0548,0.0591,0.069,0.0817,0.0793,0.0836,0.0795,0.0802,0.0515,0.0529,0.0505,0.0488,0.0484,0.0676,0.0676,0.0676,0.0676,0.0517,0.052,0.063,0.0725,0.085,0.0934,0.1121,0.1128,0.0902,0.076,0.0611,0.0544,0.0533,0.0503,0.0486,0.0477,0.0664,0.0663,0.0663,0.0562,0.0593,0.0683,0.0771,0.0917,0.1087,0.1291,0.1396,0.1009,0.0645,0.0457,0.0458,0.0332,0.0323,0.025,0.0233,0.0209,0,0]}],[{"header":{"parameterUnit":"m.s-1","parameterCategory":2,"la1":30.2992,"la2":30.254,"lo1":-89.0895,"lo2":-89.0443,"dy":0.0025,"dx":0.0025,"nx":19,"ny":19,"refTime":"2026-04-09T09:00:00:Z","depth":"2","parameterNumber":2,"parameterNumberName":"U-component_of_CURRENTS"},"data":[0,0,0,0.2295,0.2296,0.2312,0.2312,0.2329,0.2329,0,0,0,0,0,0,0,0,0,0,0,0.2297,0.2297,0.2295,0.2296,0.2312,0.2312,0.2329,0.2329,0,0,0,0,0,0,0,0,0,0,0,0.2296,0.2297,0.2298,0.2296,0.2312,0.2312,0.2329,0.2316,0,0,0,0,0,0,0,0,0,0,0.23,0.2284,0.2297,0.2298,0.2296,0.2312,0.2312,0.2315,0.2317,0.2323,0,0.2337,0,0.2334,0.2331,0.2331,0,0,0,0.2289,0.2283,0.2308,0.2298,0.2297,0.2312,0.2303,0.2316,0.2318,0.2325,0.2337,0.2338,0.2334,0.2331,0.2331,0.2389,0.2389,0,0,0.2289,0.2276,0.2307,0.231,0.2316,0.2302,0.2303,0.2317,0.2313,0.2337,0.2338,0.2335,0.2331,0.2331,0.2388,0.2389,0,0,0,0.229,0.2276,0.23,0.2309,0.2313,0.2303,0.2304,0.2312,0.2327,0.2338,0.2335,0.2331,0.2332,0.2388,0.2389,0.2421,0,0,0,0.229,0.2278,0.23,0.2289,0.2313,0.2307,0.2298,0.2326,0.2327,0.2335,0.2331,0.2332,0.2388,0.2388,0.2419,0.2428,0,0,0,0.2293,0.2277,0.2289,0.2289,0.2301,0.2308,0.2321,0.2326,0.2325,0.2331,0.2332,0.2387,0.2388,0.2417,0.2425,0.249,0,0,0,0.2266,0.2256,0.2288,0.2278,0.2301,0.2323,0.2321,0.2328,0.2333,0.2331,0.2388,0.2389,0.2416,0.2424,0.2488,0.2478,0.2488,0,0,0.2233,0.2252,0.2247,0.2276,0.2294,0.2319,0.2343,0.2349,0.2353,0.238,0.2382,0.2419,0.2425,0.249,0.2539,0.2547,0,0,0,0.2222,0.2228,0.2237,0.2259,0.229,0.2337,0.2352,0.2374,0.2409,0.2364,0.2432,0.2435,0.2475,0.2464,0.2471,0.2394,0.2394,0.2393,0.2393,0.2165,0.2197,0.22,0.2253,0.2283,0.235,0.2392,0.2432,0.2429,0.2459,0.247,0.2552,0.254,0.2546,0.2484,0.2484,0.2484,0.2484,0.2484,0.2127,0.2123,0.219,0.2206,0.2287,0.2329,0.2433,0.2463,0.2548,0.2518,0.2556,0.2508,0.2555,0.2487,0.2486,0.2486,0.2486,0.2485,0.2485,0.2079,0.2079,0.2109,0.2158,0.2228,0.2322,0.2418,0.2504,0.2571,0.2615,0.2629,0.2628,0.2578,0.2647,0.2647,0.2647,0.2648,0.2648,0.2648,0.2004,0.2036,0.2047,0.2109,0.2149,0.2251,0.2415,0.2503,0.2629,0.2667,0.2668,0.2607,0.2602,0.2588,0.2653,0.2652,0.2652,0.2651,0.2651,0.1919,0.1949,0.1959,0.1989,0.2083,0.2131,0.2322,0.2513,0.2636,0.2693,0.271,0.2707,0.2702,0.2695,0.2684,0.277,0.277,0.277,0.277,0.1858,0.1875,0.1881,0.1908,0.197,0.207,0.2157,0.2326,0.2543,0.2615,0.262,0.2555,0.2555,0.2537,0.2533,0.2517,0.256,0.2559,0.2558,0.1806,0.1825,0.1802,0.1841,0.1899,0.1982,0.1999,0.2055,0.2295,0.2543,0.2508,0.2771,0.2689,0.2683,0.2665,0.2656,0.2634,0,0]},{"header":{"parameterUnit":"m.s-1","parameterCategory":2,"la1":30.2992,"la2":30.254,"lo1":-89.0895,"lo2":-89.0443,"dy":0.0025,"dx":0.0025,"nx":19,"ny":19,"refTime":"2026-04-09T09:00:00:Z","depth":"2","parameterNumber":3,"parameterNumberName":"V-component_of_CURRENTS"},"data":[0,0,0,0.0051,0.005,-0.0033,-0.0034,-0.0162,-0.0163,0,0,0,0,0,0,0,0,0,0,0,0.0077,0.0077,0.0051,0.005,-0.0033,-0.0034,-0.0162,-0.0163,0,0,0,0,0,0,0,0,0,0,0,0.0078,0.0077,0.0077,0.005,-0.0033,-0.0034,-0.0162,-0.0098,0,0,0,0,0,0,0,0,0,0,-0.0016,0.0023,0.0077,0.0077,0.0049,-0.0033,-0.0034,-0.0095,-0.0102,-0.0126,0,-0.013,0,-0.0142,-0.0171,-0.0171,0,0,0,0.0033,0.0029,0.0005,0.0077,0.0049,-0.0033,-0.0,-0.0099,-0.0107,-0.0135,-0.0132,-0.0136,-0.0144,-0.0172,-0.0172,-0.0216,-0.0216,0,0,0.0038,0.0059,0.0011,0.0,0.0038,0.0002,-0.0003,-0.0103,-0.0107,-0.0132,-0.0139,-0.0146,-0.0173,-0.0173,-0.0217,-0.0216,0,0,0,0.0062,0.0063,0.0041,0.0005,-0.0004,0.0,-0.0006,-0.0102,-0.011,-0.0141,-0.0148,-0.0173,-0.0175,-0.0217,-0.0216,-0.0128,0,0,0,0.0064,0.0078,0.0043,0.0055,-0.0001,-0.0049,-0.0002,-0.0103,-0.0115,-0.0147,-0.0173,-0.0176,-0.0217,-0.0217,-0.0131,-0.0071,0,0,0,0.0079,0.008,0.0073,0.0057,0.0028,-0.0048,-0.0062,-0.0106,-0.0118,-0.0172,-0.0176,-0.0218,-0.0217,-0.0134,-0.0077,-0.0042,0,0,0,0.0099,0.0109,0.0074,0.0079,0.0029,0.0001,-0.0061,-0.0097,-0.0137,-0.0174,-0.0217,-0.0216,-0.0135,-0.008,-0.0045,0.0022,0.0044,0,0,0.0125,0.0112,0.0115,0.0082,0.0081,0.0011,0.0008,-0.0074,-0.0132,-0.019,-0.0191,-0.013,-0.0077,-0.0043,0.0072,0.0093,0,0,0,0.0132,0.0137,0.0128,0.0117,0.0082,0.0067,-0.0013,-0.0046,-0.0098,-0.0149,-0.0137,-0.0106,-0.0088,-0.0055,-0.0038,-0.0212,-0.0212,-0.0213,-0.0213,0.0195,0.0175,0.019,0.0166,0.015,0.0099,0.008,0.0022,-0.0051,-0.0055,-0.004,0.0042,0.0078,0.0091,-0.006,-0.006,-0.0059,-0.0059,-0.0059,0.0246,0.0257,0.0245,0.025,0.0232,0.0222,0.0167,0.0122,0.01,0.0033,0.0046,0.003,0.0114,-0.0052,-0.0053,-0.0054,-0.0055,-0.0056,-0.0056,0.0285,0.0293,0.0294,0.0319,0.0338,0.0303,0.035,0.0283,0.0194,0.0213,0.0218,0.0217,0.0103,0.0209,0.0209,0.021,0.021,0.021,0.021,0.0325,0.0332,0.0369,0.0389,0.0423,0.0466,0.0453,0.0453,0.0404,0.0337,0.0336,0.0132,0.0123,0.0118,0.0217,0.0216,0.0215,0.0214,0.0214,0.0365,0.0374,0.0439,0.048,0.0571,0.0679,0.0656,0.0674,0.0633,0.0623,0.0393,0.0386,0.0365,0.0351,0.035,0.0504,0.0504,0.0504,0.0504,0.0401,0.0406,0.0509,0.0597,0.0711,0.0781,0.0921,0.0885,0.0736,0.0618,0.0613,0.0568,0.0554,0.0538,0.0519,0.052,0.0718,0.0718,0.0718,0.0437,0.0467,0.0551,0.0636,0.077,0.0912,0.105,0.103,0.0809,0.0724,0.0617,0.0525,0.044,0.0426,0.038,0.0359,0.0351,0,0]}],[{"header":{"parameterUnit":"m.s-1","parameterCategory":2,"la1":30.2992,"la2":30.254,"lo1":-89.0895,"lo2":-89.0443,"dy":0.0025,"dx":0.0025,"nx":19,"ny":19,"refTime":"2026-04-09T09:00:00:Z","depth":"4","parameterNumber":2,"parameterNumberName":"U-component_of_CURRENTS"},"data":[0,0,0,0.137,0.1374,0.1584,0.1584,0.178,0.1781,0,0,0,0,0,0,0,0,0,0,0,0.1304,0.1305,0.1369,0.1374,0.1583,0.1585,0.178,0.1781,0,0,0,0,0,0,0,0,0,0,0,0.1303,0.1305,0.1307,0.1375,0.1583,0.1585,0.1779,0.1641,0,0,0,0,0,0,0,0,0,0,0.1448,0.1396,0.1305,0.1307,0.1376,0.1583,0.1585,0.1636,0.165,0.1661,0,0.1701,0,0.1738,0.1792,0.1792,0,0,0,0.1384,0.1384,0.1437,0.1307,0.1378,0.1583,0.1492,0.1644,0.166,0.168,0.1704,0.1712,0.1742,0.1793,0.1794,0.1954,0.1955,0,0,0.1372,0.1345,0.1426,0.1447,0.1441,0.1485,0.1498,0.1655,0.1675,0.1705,0.1717,0.1745,0.1794,0.1795,0.1954,0.1954,0,0,0,0.1333,0.1337,0.1388,0.1438,0.1479,0.1491,0.1506,0.1669,0.1685,0.1719,0.1747,0.1795,0.1797,0.1953,0.1954,0.1989,0,0,0,0.1326,0.1313,0.1382,0.1369,0.1476,0.1587,0.1516,0.1675,0.1694,0.1746,0.1795,0.1798,0.1952,0.1953,0.1987,0.1994,0,0,0,0.1293,0.131,0.1336,0.1367,0.1453,0.1585,0.1612,0.168,0.171,0.1793,0.1799,0.1952,0.1953,0.1985,0.1991,0.2046,0,0,0,0.1255,0.1307,0.1336,0.1413,0.1451,0.1584,0.1612,0.1727,0.1802,0.1796,0.1952,0.1954,0.1984,0.1989,0.2043,0.1802,0,0,0,0.1294,0.1311,0.1358,0.1388,0.1506,0.1556,0.1682,0.179,0.1821,0.1896,0.1901,0.1988,0.1991,0.2045,0.1884,0,0,0,0,0.1353,0.1387,0.143,0.151,0.1599,0.1687,0.1788,0.1831,0.1933,0.1871,0.2006,0.2007,0.204,0.1892,0.196,0.196,0.196,0.196,0.196,0.1351,0.1414,0.1495,0.1585,0.1668,0.1793,0.187,0.1944,0.1973,0.2022,0.2049,0.2131,0.1977,0.2069,0.2069,0.2069,0.207,0.207,0.207,0.1394,0.1436,0.1527,0.1629,0.1723,0.183,0.1958,0.2003,0.2115,0.2101,0.2132,0.1956,0.2074,0.2073,0.2072,0.2072,0.2072,0.2071,0.2071,0.1371,0.1397,0.1479,0.1608,0.1728,0.1853,0.1958,0.2065,0.2144,0.2189,0.2057,0.2167,0.2149,0.2223,0.2223,0.2224,0.2224,0.2224,0.2224,0.1298,0.138,0.1446,0.1585,0.1661,0.1789,0.1971,0.2042,0.2152,0.2073,0.2215,0.2183,0.2178,0.2159,0.2229,0.2228,0.2227,0.2227,0.2227,0.1263,0.1299,0.138,0.1453,0.1604,0.1671,0.1873,0.1953,0.2016,0.2004,0.2015,0.2024,0.1992,0.1993,0.1965,0.198,0.1977,0.1975,0,0.1208,0.124,0.1318,0.1386,0.1456,0.1593,0.1622,0.1734,0.1836,0.1773,0.202,0.2029,0.2034,0.1995,0.1991,0.1955,0,0,0,0.1175,0.1205,0.1228,0.1312,0.1373,0.1467,0.1619,0.1602,0.1817,0.1806,0.1903,0.1922,0.2107,0.2242,0.2216,0.221,0.2178,0,0]},{"header":{"parameterUnit":"m.s-1","parameterCategory":2,"la1":30.2992,"la2":30.254,"lo1":-89.0895,"lo2":-89.0443,"dy":0.0025,"dx":0.0025,"nx":19,"ny":19,"refTime":"2026-04-09T09:00:00:Z","depth":"4","parameterNumber":3,"parameterNumberName":"V-component_of_CURRENTS"},"data":[0,0,0,0.0197,0.0196,0.0095,0.0095,-0.0049,-0.005,0,0,0,0,0,0,0,0,0,0,0,0.0234,0.0233,0.0197,0.0196,0.0095,0.0095,-0.0049,-0.0051,0,0,0,0,0,0,0,0,0,0,0,0.0234,0.0233,0.0233,0.0195,0.0095,0.0095,-0.0049,0.0027,0,0,0,0,0,0,0,0,0,0,0.0125,0.0166,0.0234,0.0233,0.0195,0.0096,0.0095,0.0031,0.0022,-0.0004,0,-0.0009,0,-0.0028,-0.0059,-0.006,0,0,0,0.018,0.0173,0.0149,0.0233,0.0194,0.0096,0.0136,0.0026,0.0017,-0.0015,-0.0011,-0.0016,-0.003,-0.006,-0.0061,-0.0131,-0.0131,0,0,0.0186,0.0207,0.0156,0.0143,0.0181,0.014,0.0133,0.002,0.0014,-0.0011,-0.002,-0.0033,-0.0061,-0.0062,-0.0131,-0.0131,0,0,0,0.0212,0.0211,0.019,0.0149,0.0135,0.0137,0.013,0.0018,0.0013,-0.0021,-0.0034,-0.0062,-0.0063,-0.0131,-0.0131,-0.0064,0,0,0,0.0215,0.0227,0.0193,0.0203,0.0138,0.0078,0.0131,0.002,0.0007,-0.0034,-0.0062,-0.0064,-0.0131,-0.0131,-0.0066,-0.0017,0,0,0,0.0236,0.0229,0.0223,0.0205,0.0168,0.0079,0.0066,0.0017,-0.0,-0.006,-0.0065,-0.0132,-0.0131,-0.0068,-0.0021,0.0001,0,0,0,0.0253,0.0239,0.0223,0.02,0.0169,0.0118,0.0066,0.0012,-0.0035,-0.0062,-0.0131,-0.0131,-0.0069,-0.0024,-0.0002,0.004,0,0,0,0.0243,0.0238,0.0224,0.0207,0.0178,0.013,0.0098,0.0015,-0.0035,-0.0099,-0.0101,-0.0066,-0.0022,0.0,0.0065,0,0,0,0,0.0225,0.0221,0.0206,0.0188,0.0149,0.0134,0.0056,0.0027,-0.0028,-0.0058,-0.0075,-0.0049,-0.0038,-0.0022,-0.0129,-0.0129,-0.0129,-0.0129,-0.0129,0.024,0.0223,0.0215,0.0196,0.0173,0.0127,0.0107,0.0057,-0.0005,-0.0011,-0.0003,0.0053,0.0071,-0.0024,-0.0023,-0.0023,-0.0023,-0.0022,-0.0022,0.0244,0.0243,0.0243,0.023,0.0225,0.0204,0.0157,0.0123,0.0098,0.0048,0.0055,0.0038,-0.0016,-0.0017,-0.0018,-0.0019,-0.0019,-0.002,-0.002,0.0259,0.0261,0.0262,0.0276,0.029,0.0264,0.0298,0.0245,0.0171,0.0182,0.0177,0.0099,0.0102,0.0177,0.0177,0.0177,0.0178,0.0178,0.0178,0.0275,0.028,0.0308,0.0324,0.0353,0.0388,0.038,0.0372,0.0301,0.0273,0.0205,0.012,0.0113,0.0113,0.0183,0.0182,0.0182,0.0181,0.0181,0.0279,0.0299,0.0345,0.0382,0.0458,0.0492,0.0493,0.0471,0.0463,0.0422,0.0306,0.0298,0.0279,0.0269,0.0272,0.0393,0.0394,0.0395,0,0.0298,0.0305,0.0387,0.0461,0.0542,0.0557,0.0591,0.0571,0.0473,0.0464,0.0433,0.0303,0.0297,0.0273,0.0265,0.027,0,0,0,0.0314,0.034,0.0403,0.0479,0.0574,0.06,0.0603,0.0589,0.049,0.0492,0.0416,0.041,0.0304,0.0198,0.015,0.0142,0.0139,0,0]}]]